QPF
0.00 0.00 0.00 0.00 0.00 0.00 0.00 0.00 0.00 0.00 0.00 0.00 0.00 0.00 0.00 0.00 0.00 0.00 0.00 0.00 0.00 0.02 0.07 0.07 0.03 0.02 0.00 0.00 0.00 0.00 0.00 0.00 0.00 0.00 0.00 0.00 0.01 0.03 0.02 0.01 0.01 0.00 0.00 0.00
0.00 0.00 0.00 0.00 0.00 0.00 0.00 0.00 0.00 0.00 0.00 0.00 0.00 0.00 0.00 0.00 0.00 0.00 0.00 0.00 0.00 0.00 0.01 0.02 0.04 0.02 0.02 0.06 0.04 0.02 0.01 0.00 0.00 0.00 0.00 0.00 0.00 0.00 0.00 0.01 0.00 0.00 0.00 0.00
0.00 0.00 0.00 0.00 0.00 0.00 0.00 0.00 0.00 0.00 0.00 0.00 0.00 0.00 0.00 0.00 0.00 0.00 0.00 0.00 0.00 0.00 0.01 0.00 0.04 0.04 0.04 0.13 0.13 0.01 0.00 0.00 0.00 0.00 0.01 0.00 0.00 0.00 0.00 0.00 0.00 0.00 0.00 0.00
0.00 0.00 0.00 0.00 0.00 0.00 0.00 0.00 0.00 0.00 0.00 0.00 0.00 0.00 0.00 0.00 0.00 0.00 0.00 0.00 0.00 0.00 0.00 0.00 0.00 0.01 0.07 0.10 0.08 0.02 0.01 0.00 0.00 0.00 0.00 0.01 0.01 0.01 0.01 0.00 0.00 0.00 0.00 0.00
0.00 0.00 0.00 0.00 0.00 0.00 0.00 0.00 0.00 0.00 0.00 0.00 0.00 0.00 0.00 0.00 0.00 0.00 0.00 0.00 0.00 0.00 0.00 0.00 0.00 0.01 0.05 0.03 0.08 0.07 0.08 0.04 0.00 0.00 0.01 0.00 0.01 0.01 0.00 0.00 0.00 0.00 0.00 0.00
0.00 0.00 0.00 0.00 0.00 0.00 0.00 0.00 0.00 0.00 0.00 0.00 0.00 0.01 0.00 0.00 0.00 0.00 0.00 0.00 0.00 0.00 0.00 0.00 0.00 0.00 0.00 0.00 0.03 0.14 0.22 0.07 0.01 0.02 0.02 0.00 0.00 0.00 0.00 0.00 0.00 0.00 0.00 0.00
0.00 0.00 0.00 0.00 0.00 0.00 0.00 0.00 0.00 0.00 0.00 0.00 0.00 0.00 0.00 0.00 0.00 0.00 0.00 0.00 0.00 0.00 0.00 0.00 0.00 0.00 0.01 0.00 0.03 0.06 0.06 0.03 0.04 0.10 0.06 0.04 0.02 0.01 0.01 0.00 0.00 0.00 0.00 0.00
0.00 0.00 0.00 0.00 0.00 0.00 0.00 0.00 0.00 0.00 0.00 0.00 0.00 0.00 0.00 0.00 0.00 0.00 0.00 0.00 0.00 0.00 0.00 0.00 0.00 0.00 0.00 0.00 0.01 0.00 0.02 0.01 0.05 0.04 0.03 0.03 0.02 0.02 0.01 0.00 0.00 0.00 0.00 0.01
0.00 0.00 0.00 0.00 0.00 0.00 0.00 0.00 0.00 0.00 0.00 0.00 0.00 0.00 0.00 0.00 0.00 0.00 0.00 0.00 0.00 0.00 0.00 0.00 0.00 0.00 0.00 0.00 0.00 0.01 0.01 0.00 0.00 0.00 0.01 0.01 0.02 0.01 0.00 0.00 0.00 0.00 0.00 0.01
0.00 0.00 0.00 0.00 0.00 0.00 0.00 0.00 0.00 0.00 0.00 0.00 0.00 0.00 0.00 0.00 0.00 0.00 0.00 0.00 0.00 0.00 0.00 0.00 0.00 0.00 0.00 0.00 0.00 0.00 0.00 0.00 0.00 0.00 0.00 0.00 0.00 0.00 0.00 0.00 0.00 0.00 0.00 0.00
0.00 0.00 0.00 0.00 0.00 0.00 0.00 0.00 0.00 0.00 0.00 0.00 0.00 0.00 0.00 0.00 0.00 0.00 0.00 0.00 0.00 0.00 0.00 0.00 0.00 0.00 0.00 0.00 0.00 0.00 0.00 0.00 0.00 0.00 0.00 0.00 0.00 0.00 0.00 0.00 0.00 0.00 0.00 0.00
0.00 0.00 0.00 0.01 0.01 0.00 0.00 0.00 0.00 0.00 0.00 0.00 0.00 0.00 0.00 0.00 0.00 0.00 0.01 0.00 0.00 0.00 0.00 0.00 0.00 0.00 0.00 0.00 0.00 0.00 0.00 0.00 0.00 0.00 0.00 0.00 0.00 0.00 0.00 0.00 0.00 0.00 0.00 0.00
0.00 0.00 0.00 0.00 0.00 0.00 0.00 0.00 0.00 0.00 0.00 0.00 0.00 0.00 0.00 0.00 0.00 0.00 0.00 0.00 0.00 0.00 0.00 0.00 0.00 0.00 0.00 0.00 0.00 0.00 0.00 0.00 0.00 0.00 0.00 0.00 0.00 0.00 0.00 0.00 0.00 0.00 0.00 0.00
0.00 0.00 0.00 0.00 0.00 0.00 0.00 0.00 0.00 0.00 0.00 0.00 0.00 0.00 0.00 0.00 0.00 0.00 0.00 0.00 0.00 0.00 0.00 0.00 0.00 0.00 0.00 0.00 0.00 0.00 0.00 0.00 0.00 0.00 0.00 0.00 0.00 0.00 0.00 0.00 0.00 0.00 0.00 0.00
0.00 0.00 0.00 0.00 0.00 0.00 0.00 0.00 0.00 0.00 0.00 0.00 0.00 0.00 0.00 0.00 0.00 0.00 0.00 0.00 0.00 0.00 0.00 0.00 0.00 0.00 0.00 0.00 0.00 0.00 0.00 0.00 0.00 0.00 0.00 0.00 0.00 0.00 0.00 0.00 0.00 0.00 0.00 0.00
0.00 0.00 0.00 0.00 0.00 0.00 0.00 0.00 0.00 0.00 0.00 0.00 0.00 0.00 0.00 0.00 0.00 0.00 0.00 0.00 0.00 0.00 0.00 0.00 0.00 0.00 0.00 0.00 0.00 0.00 0.00 0.00 0.00 0.00 0.00 0.00 0.00 0.00 0.00 0.00 0.00 0.00 0.00 0.00
0.00 0.00 0.00 0.00 0.00 0.00 0.00 0.00 0.00 0.00 0.00 0.00 0.00 0.00 0.00 0.00 0.00 0.00 0.00 0.00 0.00 0.00 0.00 0.00 0.00 0.00 0.00 0.00 0.00 0.00 0.00 0.00 0.00 0.00 0.00 0.00 0.00 0.00 0.00 0.00 0.00 0.00 0.00 0.00
0.00 0.00 0.00 0.00 0.00 0.00 0.00 0.00 0.00 0.00 0.00 0.00 0.00 0.00 0.00 0.00 0.00 0.00 0.00 0.00 0.00 0.00 0.00 0.00 0.00 0.00 0.00 0.00 0.00 0.00 0.00 0.00 0.00 0.00 0.00 0.00 0.00 0.00 0.00 0.00 0.00 0.00 0.00 0.00
0.00 0.00 0.00 0.00 0.00 0.00 0.00 0.00 0.00 0.00 0.00 0.00 0.00 0.00 0.00 0.00 0.00 0.00 0.00 0.00 0.00 0.00 0.00 0.00 0.00 0.00 0.00 0.00 0.00 0.00 0.00 0.00 0.00 0.00 0.00 0.00 0.00 0.00 0.00 0.00 0.00 0.00 0.00 0.01
0.00 0.00 0.00 0.00 0.00 0.00 0.00 0.00 0.00 0.00 0.00 0.00 0.00 0.00 0.00 0.00 0.00 0.00 0.00 0.00 0.00 0.00 0.00 0.00 0.00 0.00 0.00 0.00 0.00 0.00 0.00 0.00 0.00 0.00 0.00 0.00 0.00 0.00 0.00 0.00 0.00 0.00 0.00 0.00
0.00 0.00 0.00 0.00 0.00 0.01 0.00 0.00 0.00 0.01 0.01 0.00 0.00 0.00 0.00 0.00 0.00 0.00 0.00 0.00 0.00 0.00 0.00 0.00 0.00 0.00 0.00 0.00 0.00 0.00 0.00 0.00 0.00 0.00 0.00 0.00 0.00 0.00 0.00 0.00 0.00 0.00 0.00 0.01
0.00 0.00 0.00 0.00 0.01 0.01 0.00 0.00 0.01 0.01 0.00 0.00 0.00 0.00 0.00 0.00 0.00 0.00 0.00 0.00 0.00 0.00 0.00 0.00 0.00 0.00 0.00 0.00 0.00 0.00 0.00 0.00 0.00 0.00 0.00 0.00 0.00 0.00 0.00 0.00 0.00 0.00 0.00 0.01
0.00 0.00 0.00 0.00 0.00 0.00 0.00 0.00 0.00 0.00 0.00 0.00 0.00 0.00 0.00 0.00 0.00 0.00 0.00 0.00 0.00 0.00 0.00 0.00 0.00 0.00 0.00 0.00 0.00 0.00 0.00 0.00 0.00 0.00 0.00 0.00 0.00 0.00 0.00 0.00 0.00 0.00 0.00 0.00
0.00 0.00 0.00 0.00 0.00 0.00 0.00 0.00 0.00 0.00 0.00 0.00 0.00 0.00 0.00 0.00 0.00 0.00 0.00 0.00 0.00 0.00 0.00 0.00 0.00 0.00 0.00 0.00 0.00 0.00 0.00 0.00 0.00 0.00 0.00 0.00 0.00 0.00 0.00 0.00 0.00 0.00 0.00 0.00
0.00 0.00 0.00 0.00 0.00 0.00 0.00 0.00 0.00 0.00 0.00 0.00 0.00 0.00 0.00 0.00 0.00 0.00 0.00 0.00 0.00 0.00 0.00 0.00 0.00 0.00 0.00 0.00 0.00 0.00 0.00 0.00 0.00 0.00 0.00 0.00 0.00 0.00 0.00 0.00 0.00 0.00 0.00 0.00
0.00 0.00 0.00 0.00 0.00 0.00 0.00 0.00 0.00 0.00 0.00 0.00 0.00 0.00 0.00 0.00 0.00 0.00 0.00 0.00 0.00 0.00 0.00 0.00 0.00 0.00 0.00 0.00 0.00 0.00 0.00 0.00 0.00 0.00 0.00 0.00 0.00 0.00 0.00 0.00 0.00 0.00 0.00 0.00
MSLP
1006.33 1006.86 1006.79 1006.45 1006.04 1006.51 1006.15 1006.70 1007.51 1007.55 1006.61 1006.35 1006.60 1007.00 1007.23 1007.88 1008.18 1009.12 1010.57 1011.88 1013.39 1014.68 1014.00 1013.63 1015.42 1014.10 1013.80 1014.24 1014.48 1014.62 1014.93 1015.46 1015.76 1015.51 1015.14 1015.30 1015.99 1015.92 1015.70 1015.22 1015.36 1015.44 1015.49 1015.51
1007.00 1006.75 1006.00 1005.52 1005.69 1005.87 1006.36 1006.77 1007.26 1006.90 1006.65 1006.91 1007.11 1007.49 1008.60 1009.32 1009.64 1009.28 1009.85 1011.57 1012.72 1014.06 1014.04 1014.27 1014.55 1014.30 1016.97 1017.53 1014.89 1016.74 1015.99 1015.45 1015.62 1015.48 1015.01 1014.81 1015.00 1015.46 1015.52 1015.01 1014.92 1015.09 1015.07 1015.12
1006.80 1005.88 1005.05 1005.36 1005.65 1005.92 1006.59 1007.04 1007.27 1007.57 1007.32 1007.26 1007.79 1009.43 1010.20 1010.55 1010.38 1009.87 1009.70 1011.48 1011.98 1012.35 1013.49 1013.36 1013.39 1013.77 1016.03 1016.87 1017.65 1018.56 1015.59 1015.25 1015.57 1015.86 1015.36 1014.91 1014.75 1015.44 1015.58 1015.23 1015.00 1014.94 1015.01 1014.95
1006.04 1005.05 1005.21 1005.38 1005.65 1005.90 1006.63 1007.05 1007.48 1007.96 1008.39 1008.71 1009.16 1011.41 1011.64 1011.38 1011.88 1011.61 1011.15 1011.04 1011.28 1012.22 1012.92 1012.96 1013.05 1015.26 1016.98 1018.78 1018.18 1017.18 1016.56 1016.02 1015.32 1015.56 1015.53 1015.50 1015.84 1016.19 1016.20 1016.04 1015.97 1015.79 1015.52 1015.44
1005.76 1005.35 1005.20 1005.62 1005.89 1006.14 1006.99 1007.31 1007.94 1008.28 1008.98 1010.00 1010.59 1012.38 1012.84 1012.60 1012.56 1012.00 1011.43 1011.61 1011.53 1011.85 1012.26 1013.11 1015.75 1017.32 1017.48 1017.42 1017.71 1017.81 1017.22 1015.23 1015.35 1014.83 1015.13 1015.66 1016.11 1016.30 1016.04 1015.96 1015.78 1015.87 1016.06 1016.04
1005.79 1005.37 1005.51 1005.83 1006.12 1006.51 1007.17 1008.07 1008.46 1008.68 1009.99 1011.88 1012.76 1013.21 1014.16 1013.06 1012.29 1012.22 1011.94 1011.13 1010.93 1012.40 1014.36 1015.24 1016.26 1016.52 1016.23 1014.68 1015.09 1015.66 1016.33 1015.34 1014.46 1014.91 1015.54 1015.09 1015.46 1015.82 1016.02 1016.13 1016.53 1016.56 1016.44 1016.34
1006.58 1006.30 1006.13 1006.28 1006.92 1007.42 1008.53 1009.90 1011.24 1012.11 1013.38 1013.94 1013.54 1014.04 1014.79 1012.82 1011.77 1011.80 1011.73 1011.87 1012.08 1013.07 1014.39 1015.75 1016.34 1016.00 1015.60 1015.24 1014.90 1014.50 1014.69 1014.76 1014.63 1014.58 1014.91 1015.12 1015.70 1015.89 1016.28 1016.60 1016.78 1016.91 1016.80 1016.68
1008.68 1007.67 1007.77 1007.33 1007.98 1009.02 1010.39 1011.68 1013.27 1014.13 1014.50 1014.50 1013.82 1014.63 1014.05 1012.93 1012.14 1011.94 1011.87 1012.35 1013.02 1013.76 1014.55 1015.24 1015.59 1015.30 1015.18 1014.80 1014.48 1014.97 1015.12 1014.71 1014.60 1014.33 1015.22 1015.56 1016.00 1016.29 1016.52 1016.64 1016.83 1017.00 1016.95 1016.77
1009.47 1009.32 1008.46 1008.66 1009.59 1010.26 1011.93 1013.50 1014.08 1014.24 1014.43 1015.10 1015.45 1014.91 1013.76 1013.51 1013.07 1012.89 1013.02 1013.25 1013.86 1014.52 1015.42 1015.48 1015.68 1015.99 1016.25 1016.11 1015.96 1015.11 1015.34 1015.18 1015.27 1015.93 1016.27 1016.44 1016.44 1016.56 1016.87 1017.08 1017.09 1017.12 1017.02 1016.94
1009.98 1010.50 1010.12 1010.50 1010.40 1012.36 1013.21 1014.33 1014.77 1014.82 1016.10 1016.18 1016.31 1015.70 1015.23 1014.49 1014.32 1014.10 1014.40 1014.66 1015.07 1014.94 1015.27 1015.76 1015.94 1016.08 1016.34 1016.06 1016.31 1016.18 1016.23 1016.51 1016.57 1016.56 1016.64 1016.89 1017.06 1017.23 1017.31 1017.44 1017.57 1017.46 1017.40 1017.17
1009.28 1010.34 1011.38 1011.66 1013.68 1013.96 1014.26 1015.26 1015.41 1015.36 1015.83 1016.36 1016.70 1016.33 1015.15 1015.12 1015.55 1016.28 1016.55 1016.55 1017.57 1016.42 1016.42 1016.37 1016.20 1016.02 1016.62 1016.31 1016.57 1016.65 1016.56 1016.68 1016.75 1016.98 1017.28 1017.50 1017.64 1017.84 1018.02 1018.17 1018.16 1017.85 1017.79 1017.54
1010.05 1010.87 1013.32 1014.43 1014.30 1013.48 1014.01 1014.29 1015.22 1015.86 1016.31 1016.30 1016.42 1016.58 1015.46 1016.15 1017.01 1017.17 1018.16 1018.62 1018.83 1018.35 1017.08 1016.79 1016.58 1016.93 1017.12 1017.18 1017.07 1017.06 1017.19 1017.30 1017.29 1017.71 1017.84 1018.20 1018.50 1018.56 1018.62 1018.54 1018.32 1018.23 1018.05 1017.80
1010.69 1011.60 1013.60 1014.36 1013.90 1013.82 1014.26 1013.98 1014.68 1015.52 1015.94 1016.55 1016.86 1017.40 1016.66 1017.34 1018.22 1018.83 1019.27 1019.89 1019.47 1019.50 1017.74 1017.41 1017.37 1017.55 1017.92 1017.68 1017.53 1017.69 1017.72 1017.82 1017.99 1018.08 1018.58 1018.87 1019.04 1018.96 1018.87 1018.76 1018.63 1018.43 1018.19 1017.87
1010.68 1011.93 1012.96 1014.15 1014.33 1014.19 1015.86 1014.22 1014.44 1015.11 1016.54 1015.75 1016.36 1017.17 1017.46 1018.36 1019.12 1019.22 1018.79 1018.35 1019.08 1018.18 1018.04 1017.98 1017.92 1018.16 1018.13 1017.86 1017.86 1017.98 1018.07 1018.14 1018.31 1018.73 1019.21 1019.54 1019.48 1019.40 1019.30 1019.18 1019.03 1018.78 1018.49 1018.05
1011.63 1012.48 1012.73 1013.43 1013.11 1012.85 1013.93 1013.64 1013.78 1014.47 1015.39 1015.98 1016.06 1017.30 1018.92 1019.36 1019.54 1019.36 1018.88 1018.57 1018.22 1018.36 1018.12 1018.59 1018.50 1018.65 1018.51 1018.51 1018.36 1018.34 1018.40 1018.50 1018.69 1019.36 1019.81 1019.92 1019.73 1019.65 1019.63 1019.42 1019.19 1019.01 1018.70 1018.31
1012.06 1012.72 1012.90 1013.23 1012.85 1013.12 1013.14 1012.98 1013.20 1013.28 1014.36 1015.13 1015.96 1017.46 1018.54 1019.28 1019.35 1019.39 1019.01 1018.88 1018.55 1018.66 1018.67 1018.67 1018.58 1018.90 1019.06 1019.01 1018.85 1018.84 1019.03 1019.17 1019.06 1019.66 1020.02 1019.97 1020.00 1020.07 1019.94 1019.70 1019.46 1019.17 1018.90 1018.50
1012.71 1013.28 1013.70 1013.91 1013.46 1013.43 1013.78 1013.24 1013.40 1014.02 1014.56 1015.15 1016.23 1017.16 1018.43 1019.05 1019.01 1018.98 1019.03 1018.95 1019.06 1018.90 1018.81 1018.88 1019.09 1019.38 1019.48 1019.42 1019.32 1019.50 1019.47 1019.52 1019.90 1020.07 1020.26 1020.30 1020.41 1020.37 1020.26 1019.87 1019.65 1019.43 1019.14 1018.72
1012.89 1013.63 1014.32 1014.96 1014.66 1014.88 1015.22 1013.86 1014.12 1014.40 1014.95 1015.42 1016.58 1017.49 1017.88 1018.38 1018.82 1018.78 1018.85 1019.18 1019.12 1018.99 1019.24 1019.35 1019.47 1019.80 1019.79 1019.74 1019.78 1019.88 1019.80 1020.12 1020.36 1020.54 1020.69 1020.73 1020.74 1020.59 1020.39 1020.11 1019.91 1019.67 1019.36 1019.08
1012.80 1014.27 1015.72 1016.09 1015.97 1015.80 1015.43 1015.44 1015.29 1015.69 1016.35 1015.93 1016.58 1017.29 1017.71 1018.20 1018.61 1018.96 1018.92 1018.88 1019.08 1019.40 1019.48 1019.56 1019.80 1020.08 1020.06 1020.17 1020.32 1020.21 1020.43 1020.48 1020.86 1021.06 1021.07 1021.04 1021.04 1020.93 1020.74 1020.40 1020.24 1019.90 1019.68 1019.40
1013.64 1014.50 1016.16 1016.91 1017.46 1017.40 1017.40 1016.25 1015.68 1015.81 1016.58 1016.37 1016.76 1017.24 1017.78 1018.03 1019.11 1019.39 1018.94 1019.02 1019.35 1019.52 1019.65 1019.84 1020.08 1020.29 1020.43 1020.76 1020.71 1020.80 1021.18 1021.21 1021.47 1021.54 1021.36 1021.24 1021.21 1021.14 1021.03 1020.70 1020.39 1020.09 1019.82 1019.63
1014.71 1015.95 1017.41 1018.10 1018.33 1017.61 1017.18 1016.34 1015.56 1016.48 1017.52 1016.63 1016.92 1017.46 1017.95 1018.61 1018.90 1019.08 1018.98 1019.38 1019.48 1019.64 1019.78 1019.80 1020.26 1020.72 1021.00 1021.06 1021.18 1021.40 1021.65 1021.87 1021.87 1021.68 1021.48 1021.38 1021.29 1021.17 1020.97 1020.77 1020.52 1020.31 1020.00 1019.78
1014.82 1016.22 1017.51 1018.41 1018.62 1017.46 1016.02 1016.48 1016.24 1016.83 1016.55 1016.65 1016.92 1017.40 1017.83 1018.31 1018.79 1019.16 1019.52 1019.73 1019.81 1019.88 1019.98 1020.01 1020.59 1020.90 1021.02 1021.01 1021.30 1021.79 1022.08 1022.11 1021.90 1021.78 1021.66 1021.60 1021.40 1021.26 1021.06 1020.88 1020.72 1020.60 1020.38 1020.32
1014.66 1014.76 1015.38 1016.31 1016.12 1015.44 1015.25 1015.67 1015.83 1016.08 1016.60 1016.95 1017.14 1017.45 1017.72 1018.50 1019.01 1019.50 1019.99 1020.06 1020.16 1020.19 1020.28 1020.25 1020.59 1021.04 1021.06 1021.19 1021.36 1022.00 1022.32 1022.10 1022.07 1022.06 1021.84 1021.73 1021.52 1021.38 1021.32 1021.24 1021.14 1021.16 1020.96 1020.91
1013.76 1013.76 1014.61 1015.20 1015.16 1015.18 1015.02 1015.02 1015.35 1015.69 1016.18 1016.54 1016.99 1017.60 1018.12 1018.91 1019.42 1020.03 1020.33 1020.48 1020.52 1020.44 1020.52 1020.53 1020.67 1021.23 1021.44 1021.42 1021.69 1022.14 1022.26 1022.19 1022.22 1022.24 1022.00 1021.76 1021.76 1021.65 1021.53 1021.56 1021.59 1021.82 1021.76 1021.65
1013.41 1013.53 1014.06 1014.68 1014.82 1014.85 1014.91 1015.04 1015.22 1015.60 1015.98 1016.52 1017.08 1017.73 1018.46 1019.10 1019.85 1020.26 1020.67 1020.74 1020.68 1020.69 1020.78 1020.71 1020.90 1021.24 1021.66 1021.66 1022.06 1022.18 1022.28 1022.33 1022.44 1022.35 1022.19 1022.00 1021.90 1021.91 1021.84 1021.97 1022.21 1022.27 1022.36 1022.27
1013.63 1013.72 1014.20 1014.87 1014.68 1014.96 1015.08 1014.75 1014.82 1015.30 1015.78 1016.32 1017.02 1017.80 1018.42 1019.11 1020.03 1020.33 1020.78 1020.86 1020.86 1020.91 1020.83 1020.92 1021.00 1021.29 1021.56 1021.72 1022.14 1022.31 1022.35 1022.40 1022.58 1022.53 1022.37 1022.15 1022.08 1022.04 1021.99 1022.07 1022.29 1022.38 1022.24 1022.30
Thickness
5825 5800 5784 5810 5825 5817 5823 5811 5792 5799 5826 5822 5815 5816 5814 5822 5816 5806 5785 5778 5774 5758 5767 5765 5744 5763 5759 5750 5746 5739 5735 5728 5724 5720 5715 5708 5697 5693 5689 5687 5681 5675 5670 5664
5802 5785 5821 5842 5839 5831 5818 5802 5794 5813 5826 5817 5810 5807 5802 5802 5800 5812 5808 5787 5778 5763 5761 5760 5752 5756 5730 5710 5708 5716 5719 5723 5720 5716 5711 5704 5696 5687 5680 5679 5674 5666 5659 5652
5792 5813 5844 5837 5828 5817 5808 5796 5797 5795 5810 5816 5809 5776 5778 5789 5796 5805 5812 5789 5783 5776 5766 5767 5770 5758 5727 5714 5679 5686 5723 5715 5710 5704 5701 5696 5692 5677 5670 5668 5664 5657 5648 5642
5813 5842 5832 5823 5816 5817 5783 5815 5811 5800 5785 5757 5797 5730 5761 5774 5767 5773 5780 5788 5780 5770 5765 5763 5757 5731 5712 5689 5697 5699 5697 5700 5709 5699 5691 5684 5670 5658 5655 5651 5644 5638 5630 5623
5808 5825 5823 5808 5810 5823 5801 5819 5805 5803 5784 5765 5771 5726 5739 5756 5749 5760 5771 5772 5779 5773 5768 5760 5731 5705 5704 5698 5689 5684 5675 5689 5694 5693 5683 5670 5659 5653 5651 5642 5635 5626 5615 5606
5824 5848 5832 5819 5827 5826 5826 5804 5799 5798 5773 5734 5744 5733 5724 5739 5757 5756 5766 5779 5786 5767 5745 5735 5724 5715 5712 5723 5713 5702 5689 5695 5695 5682 5671 5672 5665 5655 5644 5636 5622 5611 5603 5592
5808 5817 5828 5832 5807 5815 5793 5766 5724 5720 5713 5708 5746 5729 5712 5755 5776 5772 5771 5770 5774 5764 5748 5733 5722 5722 5719 5719 5719 5715 5702 5693 5689 5686 5676 5667 5653 5643 5631 5618 5608 5597 5587 5576
5751 5767 5795 5823 5806 5784 5776 5760 5718 5706 5704 5714 5754 5716 5728 5760 5774 5772 5772 5771 5763 5750 5742 5732 5724 5720 5718 5719 5713 5701 5697 5691 5684 5679 5664 5654 5642 5630 5617 5608 5596 5582 5571 5560
5748 5754 5807 5814 5796 5791 5766 5731 5756 5740 5750 5713 5709 5729 5752 5758 5757 5761 5759 5757 5748 5739 5728 5722 5717 5708 5702 5699 5696 5698 5686 5679 5673 5658 5648 5639 5631 5621 5608 5594 5582 5569 5558 5549
5769 5748 5786 5786 5795 5775 5756 5758 5723 5724 5699 5698 5701 5708 5707 5734 5741 5748 5741 5740 5730 5733 5728 5716 5710 5705 5700 5697 5688 5682 5674 5663 5656 5649 5640 5629 5617 5604 5592 5580 5567 5558 5549 5538
5798 5768 5766 5771 5743 5742 5741 5725 5741 5738 5724 5695 5687 5694 5735 5743 5735 5721 5713 5719 5702 5711 5714 5710 5707 5703 5693 5689 5681 5673 5667 5659 5649 5639 5628 5616 5603 5590 5579 5567 5556 5548 5536 5527
5789 5768 5720 5731 5751 5770 5761 5749 5741 5704 5714 5719 5705 5691 5744 5732 5717 5715 5696 5694 5685 5698 5703 5701 5698 5691 5680 5675 5672 5667 5659 5649 5639 5626 5616 5603 5588 5577 5566 5555 5546 5537 5528 5518
5784 5753 5708 5718 5745 5751 5737 5754 5745 5729 5724 5713 5693 5691 5734 5720 5709 5702 5692 5680 5683 5678 5693 5691 5687 5678 5671 5669 5666 5658 5649 5637 5627 5617 5602 5587 5575 5565 5556 5547 5539 5530 5521 5512
5786 5760 5744 5710 5718 5739 5700 5736 5742 5726 5691 5708 5713 5709 5714 5708 5696 5696 5698 5697 5683 5691 5687 5682 5678 5672 5669 5665 5659 5650 5640 5627 5616 5604 5587 5575 5563 5554 5546 5537 5529 5522 5516 5509
5771 5746 5759 5747 5758 5759 5739 5744 5746 5722 5720 5707 5720 5704 5688 5690 5689 5688 5689 5694 5692 5684 5683 5675 5670 5665 5661 5655 5648 5641 5631 5620 5608 5590 5576 5565 5555 5547 5537 5530 5524 5517 5511 5507
5772 5739 5754 5745 5756 5754 5744 5750 5748 5749 5736 5729 5719 5699 5694 5692 5689 5686 5686 5683 5680 5677 5674 5672 5669 5662 5653 5646 5638 5630 5619 5608 5599 5582 5568 5558 5549 5539 5531 5525 5519 5513 5508 5505
5755 5741 5730 5722 5747 5746 5716 5738 5742 5733 5731 5723 5701 5709 5699 5688 5688 5685 5683 5677 5675 5673 5672 5668 5663 5653 5645 5637 5629 5618 5609 5600 5585 5572 5561 5552 5542 5533 5525 5521 5515 5509 5505 5503
5744 5738 5731 5710 5724 5688 5720 5743 5738 5727 5726 5725 5711 5705 5702 5690 5684 5685 5685 5675 5673 5673 5668 5663 5655 5644 5638 5630 5621 5612 5603 5590 5576 5564 5554 5545 5536 5529 5523 5517 5512 5506 5503 5500
5756 5732 5706 5695 5698 5708 5717 5719 5717 5705 5698 5717 5707 5703 5700 5692 5684 5678 5683 5681 5675 5668 5662 5656 5649 5639 5632 5623 5615 5607 5595 5584 5571 5558 5549 5542 5532 5525 5518 5515 5508 5504 5500 5498
5740 5734 5708 5697 5685 5673 5692 5715 5727 5722 5674 5711 5705 5698 5693 5690 5655 5663 5680 5678 5670 5665 5660 5652 5646 5636 5626 5616 5609 5599 5585 5575 5563 5553 5546 5538 5529 5521 5516 5511 5507 5504 5501 5498
5702 5698 5686 5669 5666 5683 5702 5715 5728 5684 5662 5709 5701 5693 5688 5674 5673 5678 5680 5673 5669 5662 5657 5650 5641 5630 5619 5612 5602 5591 5579 5568 5559 5550 5544 5536 5528 5521 5516 5511 5508 5504 5501 5498
5705 5685 5673 5657 5650 5652 5719 5708 5694 5695 5707 5704 5699 5693 5687 5687 5683 5679 5674 5668 5663 5658 5654 5647 5636 5626 5618 5609 5598 5585 5575 5566 5558 5549 5542 5534 5528 5522 5517 5512 5509 5504 5501 5497
5696 5706 5690 5691 5681 5710 5715 5706 5708 5710 5702 5696 5692 5692 5691 5684 5679 5675 5667 5663 5659 5654 5648 5642 5632 5622 5615 5606 5597 5582 5572 5565 5557 5547 5542 5534 5529 5523 5517 5512 5509 5504 5501 5497
5719 5732 5705 5704 5714 5707 5709 5711 5706 5704 5698 5698 5697 5691 5686 5676 5674 5667 5662 5657 5652 5649 5643 5637 5629 5618 5608 5602 5592 5580 5572 5564 5556 5547 5543 5537 5530 5524 5519 5513 5509 5502 5498 5495
5719 5722 5710 5705 5708 5711 5711 5709 5706 5703 5703 5698 5694 5688 5682 5677 5669 5663 5657 5652 5649 5645 5638 5632 5624 5615 5604 5598 5588 5579 5571 5563 5555 5548 5542 5537 5531 5524 5520 5514 5508 5504 5498 5496
5716 5705 5688 5675 5706 5697 5697 5708 5710 5702 5699 5698 5691 5685 5682 5675 5664 5660 5653 5650 5646 5640 5635 5628 5621 5611 5604 5596 5587 5577 5570 5562 5554 5547 5543 5538 5533 5526 5522 5519 5514 5509 5506 5502